Location: Bukowno
(50.2692°N, 19.4529°E)
Time: 00:55:50
(UTC+02:00)

ISS - Visible Passes

Search period start: 21 September 2018 00:00
Search period end: 01 October 2018 00:00
Orbit: 403 x 408 km, 51.6° (Epoch: 21 September)

Date Brightness Start Highest point End Pass type
(mag) Time Alt. Az. Time Alt. Az. Time Alt. Az.
22 Sep -1.8 20:27:36 10° SSW 20:28:51 18° S 20:28:51 18° S visible
23 Sep -2.1 19:36:33 10° S 19:38:44 17° SE 19:39:38 15° ESE visible
23 Sep -1.3 21:11:31 10° WSW 21:12:20 16° WSW 21:12:20 16° WSW visible
24 Sep -3.5 20:19:49 10° SW 20:22:54 45° SSE 20:22:54 45° SSE visible
25 Sep -2.8 19:28:16 10° SSW 19:31:13 30° SSE 19:33:19 16° E visible
25 Sep -2.0 21:04:13 10° WSW 21:06:01 29° W 21:06:01 29° W visible
26 Sep -3.9 20:12:20 10° WSW 20:15:38 76° SSE 20:16:18 53° E visible
26 Sep -0.4 21:48:56 10° W 21:48:59 10° W 21:48:59 10° W visible
27 Sep -3.6 19:20:32 10° SW 19:23:46 53° SSE 19:26:29 14° E visible
27 Sep -2.4 20:56:58 10° W 20:59:10 38° WNW 20:59:10 38° WNW visible
28 Sep -3.8 20:05:00 10° W 20:08:18 78° N 20:09:17 42° ENE visible
28 Sep -0.5 21:41:39 10° WNW 21:41:57 12° WNW 21:41:57 12° WNW visible
29 Sep -3.8 19:13:03 10° WSW 19:16:22 84° SSE 19:19:20 12° ENE visible
29 Sep -2.5 20:49:40 10° W 20:52:00 41° WNW 20:52:00 41° WNW visible
30 Sep -3.6 19:57:41 10° W 20:00:58 67° N 20:02:01 39° ENE visible
30 Sep -0.5 21:34:16 10° WNW 21:34:41 13° WNW 21:34:41 13° WNW visible
